Погода в Бжеге

Польша     50°51′19″N   17°28′27″E
темп.,
°C
ветер,
м/с
пор.,
м/с
влажн.,
%
обл.,
%
осадки,
мм/ч
давл.,
гПа
погр.,
м
28 февраля, вс
вс2801:00+3зсз498598 0.1 1038424
04:00+2зсз498864 0.0 1037377
07:00+1сз389281 0.0 1036299
10:00+5зсз467433 0.0 1036543
13:00+8зсз575817 0.0 1034788
16:00+8сз58650 0.0 1033827
19:00+5сз410850 0.0 1034240
22:00+3зсз49930 0.0 1034219
1 марта, пн
пн101:00+2ссз23971 0.0 103571
04:00+1сз239715 0.0 103549
07:000сз229716 0.0 103626
10:00+5зсз228123 0.0 1036397
13:00+9з116619 0.0 1036566
16:00+9ссз11630 0.0 1034638
19:00+5юв11790 0.0 103522
22:00+4ююз23850 0.0 103522
2 марта, вт
вт201:00+3юз12860 0.0 103522
04:00+3зюз22850 0.0 103422
07:00+3зюз12840 0.0 103422
10:00+8з22640 0.0 1034273
13:00+11сз23530 0.0 1033639
16:00+12зсз23570 0.0 1032550
19:00+7ссз12720 0.0 103322
22:00+6з11760 0.0 103322
3 марта, ср
ср301:00+4зсз11810 0.0 103322
04:00+4юз11820 0.0 103222
07:00+3зюз11840 0.0 103222
10:00+9зюз11650 0.0 1031258
13:00+12зюз01510 0.0 1029619
16:00+12вюв01505 0.0 1027643
19:00+8юв12663 0.0 102722
22:00+6ююз22750 0.0 102623
4 марта, чт
чт401:00+5зюз337539 0.0 102443
04:00+4юз347964 0.0 102271
07:00+4юз358178 0.0 1020101
10:00+10зюз476575 0.0 1018423
13:00+13з575685 0.0 1016917
16:00+10зюз4970100 1.4 1014755
19:00+8зюз61181100 1.6 1012458
22:00+7з51283100 0.1 1012697